Weather in Hrakove

Ukraine / Kharkiv Region     49°42′59″N   36°49′13″E
temp.,
°C
wind,
m/s
gust,
m/s
humid.,
%
clouds,
%
prec.,
mm/h
press.,
hPa
HPBL,
m
18 april, sun
sun1800:00+7ssw2380100 0.1 101993
03:00+7sw2582100 0.1 1019222
06:00+6sw2586100 0.1 1019182
09:00+9wsw3667100 0.2 1018848
12:00+11wsw4560100 0.6 10181222
15:00+12wsw3555100 1.1 10171390
18:00+8n4587100 1.5 1017358
21:00+8ene228985 2.4 1018204
19 april, mon
mon1900:00+7ene009173 0.0 101738
03:00+5wnw2294100 0.0 101715
06:00+5nnw119517 0.0 101711
09:00+9ne2272100 0.0 1017788
12:00+11ne2256100 0.1 10161206
15:00+14e1146100 0.1 10161659
18:00+13ne1245100 0.0 10151632
21:00+9ne476611 0.0 1015132
20 april, tue
tue2000:00+9ene4968100 0.0 1014306
03:00+9ene51068100 0.0 1012337
06:00+8ene5974100 0.0 1010231
09:00+9ene71183100 0.7 1008540
12:00+10ene81589100 5.4 10031011
15:00+10ne61295100 20.7 998697
18:00+11s5992100 5.2 996396
21:00+10ssw71388100 6.9 998613
21 april, wed
wed2100:00+9s71289100 0.6 999762
03:00+7wnw51088100 2.0 1002875
06:00+7w61190100 0.0 1007716
09:00+7w7980100 0.1 1011782
12:00+10wsw7863100 0.0 10131444
15:00+8wsw6868100 0.1 10161225
18:00+8w4867100 0.0 10181109
21:00+6sw1174100 0.0 102011
22 april, thu
thu2200:00+5s3476100 0.0 102163
03:00+5s358499 0.0 102193
06:00+6sse2484100 0.0 102274
09:00+9s4672100 0.0 1023356
12:00+13s4461100 0.5 10231182
15:00+14s445793 1.6 10221271
18:00+13s3667100 0.9 1022413
21:00+10s3377100 1.4 102348